Vertical_Velocity
-1 -1 -1 -1 -1 -2 -2 -2 -2 -2 -2 -2 -1 -1 -1 -0 -0 -0 -0 -0 -0 -0 -0 -0 0 0 1 1 1 2 2 2 2 1 1 -1 -1 -2 -3 -2 -1 1 2 1 -0 -1 -2 -2 -0 1 1 -0 -0 -0 0 0 0 1 1 1 2 3 3 3 1 -0 -1 -1 -0 0 1 1 0 -1 -1 -1 -1 -1 -1 -1 -1 -1 -1 0 1 1 2 2 1 0 -1 -1 -2 -2 -3 -2 -1 1 2 4 3 1 0
-2 -2 -1 -1 -1 -1 -2 -2 -2 -2 -2 -2 -2 -2 -1 -1 -1 -1 -1 -1 -1 -1 -1 -1 -1 -1 -1 -0 0 1 2 2 2 2 2 1 0 -0 -1 -2 -2 -1 0 1 1 1 -1 -3 -1 1 1 0 -1 -1 -0 -0 0 1 1 1 1 2 3 3 2 1 -0 -0 -0 0 1 1 0 -1 -1 -1 -1 -1 -1 -1 -1 -0 -0 1 1 1 1 1 1 -0 -2 -2 -1 -1 -1 -1 -1 -1 -1 2 4 3 2
-2 -2 -2 -2 -2 -2 -2 -2 -2 -2 -2 -2 -2 -2 -2 -2 -2 -1 -1 -1 -1 -1 -1 -1 -1 -2 -2 -1 -1 -0 -0 0 0 1 1 1 1 1 1 -0 -1 -2 -2 -0 1 2 2 -1 -2 -1 2 1 0 -1 -1 -1 -0 1 2 2 2 1 1 2 2 1 0 0 0 1 1 1 -0 -1 -1 -1 -1 -1 -1 -1 -0 -0 0 1 1 1 1 1 -0 -1 -2 -1 -0 0 1 0 -0 -1 -1 0 2 3 5
-3 -2 -2 -2 -2 -2 -2 -2 -2 -2 -3 -3 -3 -3 -4 -4 -3 -3 -3 -2 -2 -1 -1 -1 -1 -1 -2 -2 -1 -1 -1 -1 -1 -1 -0 0 1 1 2 1 0 -1 -2 -2 -0 2 3 2 -0 -1 -0 2 1 -0 -2 -2 -1 -0 1 2 2 2 1 2 2 2 1 1 1 1 1 1 -0 -1 -1 -1 -1 -1 -0 -0 -0 -0 1 1 1 1 -0 -0 -1 -1 -1 -0 0 0 1 1 1 0 -0 -1 0 2 3
-3 -3 -2 -2 -2 -2 -2 -3 -3 -3 -3 -3 -4 -4 -4 -4 -5 -5 -5 -4 -4 -3 -3 -2 -2 -1 -1 -1 -1 -2 -2 -2 -2 -2 -2 -1 -0 0 1 1 1 -0 -1 -2 -1 1 2 4 3 1 -2 0 2 1 -1 -2 -2 -1 -0 2 3 3 2 2 1 1 1 1 1 1 1 1 -0 -1 -1 -1 -1 -0 -0 -0 -0 0 1 1 1 -0 -1 -1 -1 -1 -0 0 0 0 0 0 1 1 1 -0 -1 0 1
-3 -2 -2 -2 -3 -3 -3 -3 -3 -3 -3 -3 -3 -4 -4 -4 -4 -5 -5 -6 -6 -5 -5 -4 -3 -3 -2 -2 -1 -1 -2 -2 -2 -2 -2 -2 -2 -1 -1 -1 -0 -1 -1 -1 -1 -0 1 3 5 4 0 -1 0 2 1 -2 -3 -2 -1 1 2 3 3 2 1 1 1 1 1 1 1 1 0 -1 -1 -1 -1 -0 0 0 0 1 1 1 -0 -1 -2 -2 -1 -0 0 0 -0 -0 -0 0 1 1 1 0 -0 -0 1
-2 -2 -2 -2 -2 -2 -3 -3 -3 -3 -3 -3 -3 -3 -3 -3 -3 -4 -4 -5 -5 -5 -5 -5 -5 -4 -4 -3 -2 -2 -2 -2 -2 -1 -2 -2 -2 -2 -2 -2 -2 -2 -2 -2 -1 -0 1 2 5 6 4 -1 -1 1 3 1 -2 -3 -2 -0 1 2 4 3 2 1 -0 1 1 2 1 1 0 -0 -1 -1 -1 -0 0 1 1 1 1 -0 -1 -2 -3 -2 -1 -0 0 1 0 0 0 0 1 1 1 0 -0 -0 0
-1 -1 -1 -1 -1 -1 -2 -2 -2 -2 -2 -2 -2 -2 -1 -2 -2 -2 -2 -3 -3 -4 -4 -5 -5 -5 -4 -4 -4 -3 -3 -2 -2 -1 -1 -1 -2 -2 -3 -3 -3 -3 -3 -3 -2 -2 -1 1 4 6 4 1 0 1 2 3 1 -1 -3 -2 -0 1 3 3 2 1 0 0 1 1 1 1 0 -0 -0 -1 -0 0 1 1 1 1 0 -1 -2 -2 -2 -1 -0 0 1 1 1 1 0 0 0 0 0 0 0 0 0
-1 -1 -1 -0 -0 -0 -0 -1 -1 -1 -1 -1 -0 -0 -0 -0 -0 -1 -1 -1 -2 -2 -3 -3 -4 -4 -4 -4 -4 -4 -3 -3 -2 -2 -2 -2 -2 -2 -2 -2 -2 -2 -2 -3 -3 -3 -2 0 3 4 1 2 1 1 1 3 4 2 -0 -2 -2 -1 1 2 2 2 1 1 1 1 1 1 0 0 0 0 0 0 1 1 1 0 -0 -1 -1 -1 -1 -1 -0 0 1 1 1 1 1 1 0 -0 -0 0 1 1 -0
-2 -1 -1 -1 -1 -0 -0 -0 -0 -0 0 0 0 1 1 1 1 1 1 1 1 0 -0 -0 -1 -2 -2 -3 -3 -3 -2 -2 -2 -2 -2 -2 -3 -2 -2 -2 -2 -2 -2 -2 -2 -2 -1 0 1 0 -2 1 1 1 2 3 4 5 4 -0 -2 -2 -1 -0 1 1 2 1 1 0 0 0 1 1 1 1 1 1 0 0 0 -0 -0 -1 -1 -1 -1 -1 -0 1 1 1 1 1 1 1 0 -0 -0 0 1 0 -0
-3 -2 -2 -2 -1 -1 -1 -1 -0 -0 0 0 1 1 1 2 2 3 3 3 4 4 4 3 3 2 2 1 0 -0 -0 -1 -1 -1 -1 -2 -3 -3 -3 -3 -2 -2 -1 -1 -1 -0 1 1 -0 -3 -4 -1 -0 0 3 2 4 6 6 3 0 -2 -3 -2 -1 -0 1 2 1 0 -1 -0 0 1 2 2 2 1 0 -0 -0 -0 -0 -0 -0 -1 -1 -1 -0 1 1 1 1 1 1 0 -0 -0 -0 0 0 -0 -1
-3 -3 -3 -3 -2 -2 -2 -2 -1 -1 -0 -0 0 1 1 2 2 3 4 4 5 5 6 6 6 6 6 5 4 4 3 3 2 2 1 0 -1 -2 -2 -3 -3 -3 -2 -2 -0 2 3 2 -1 -3 -5 -3 -2 -1 2 2 4 6 5 5 3 1 -2 -3 -3 -2 0 2 2 1 -0 -1 -0 1 1 2 2 2 1 -0 -1 -0 -0 0 -0 -0 -1 -0 0 1 1 1 1 0 -0 -0 -0 -0 -0 -0 -1 -1 -1
-3 -3 -3 -3 -3 -3 -3 -2 -2 -2 -1 -1 -0 0 1 1 1 1 1 2 3 3 4 4 5 5 5 6 5 5 5 5 5 4 3 2 2 1 0 -1 -2 -2 -3 -2 -0 2 3 2 0 -2 -3 -4 -3 -2 -0 1 3 5 5 5 4 2 1 -1 -3 -3 -2 -0 1 1 0 -0 -0 -0 1 2 2 2 2 1 -0 -0 -0 0 0 0 0 1 1 1 1 1 0 -0 -0 -0 -0 -0 -0 -1 -2 -2 -1
-2 -2 -2 -2 -2 -2 -2 -2 -2 -2 -1 -1 -0 0 0 -0 -1 -1 -1 -1 -1 -0 -0 0 1 1 2 2 3 4 4 5 5 4 3 3 2 2 1 1 0 -1 -1 -1 0 2 2 1 0 -1 -1 -3 -3 -2 -2 0 2 4 5 5 4 2 3 1 -1 -3 -4 -2 -1 -0 1 1 0 -0 0 1 2 2 3 2 1 -0 -0 -0 -0 0 1 1 1 1 1 1 0 -0 -1 -0 -0 -1 -1 -1 -2 -2 -1
-2 -2 -2 -2 -1 -1 -1 -1 -1 -1 -1 -1 -1 -0 -0 -1 -1 -2 -2 -3 -3 -3 -3 -3 -3 -3 -2 -2 -1 -0 2 3 3 3 3 2 1 0 -0 -0 -0 -0 -0 1 2 2 1 1 0 0 0 -1 -2 -2 -2 -0 1 3 6 5 3 2 2 2 2 -0 -3 -4 -3 -2 0 1 1 1 -0 -0 0 1 2 3 2 1 -0 -0 -0 0 1 1 1 1 1 1 0 -0 -1 -1 -1 -1 -1 -1 -1 -1 -0
-2 -2 -2 -2 -2 -1 -1 -1 -1 -2 -2 -2 -2 -1 -1 -2 -2 -2 -2 -3 -3 -4 -4 -5 -5 -5 -4 -5 -5 -4 -2 -0 1 2 2 1 1 -0 -1 -2 -2 -2 -2 0 1 1 2 2 2 1 -0 -1 -1 -2 -1 -0 1 2 6 5 4 2 0 1 2 2 -0 -3 -4 -4 -2 1 2 2 0 -0 -0 0 1 2 2 2 1 0 -0 -0 1 1 1 1 1 1 0 -0 -1 -2 -2 -1 -1 -1 -1 -0 1
-1 -2 -2 -2 -3 -3 -3 -3 -3 -3 -3 -3 -3 -3 -3 -3 -4 -4 -4 -4 -4 -4 -5 -5 -5 -5 -5 -5 -6 -6 -5 -4 -2 -1 -0 0 0 -0 -1 -2 -3 -3 -3 -3 -2 -1 1 2 3 2 1 -0 -1 -2 -1 -0 1 3 5 5 4 2 -0 -0 1 2 2 0 -3 -4 -4 -1 1 2 2 -0 -1 -1 -0 1 2 3 2 1 0 -0 0 0 1 1 1 1 -0 -1 -1 -1 -1 -1 -1 -1 -0 0 1
-0 -1 -2 -3 -3 -4 -4 -4 -4 -4 -4 -5 -4 -4 -4 -5 -6 -6 -6 -6 -6 -6 -6 -7 -6 -6 -5 -5 -6 -6 -6 -6 -5 -4 -3 -1 -1 -1 -2 -2 -3 -3 -4 -4 -4 -3 -1 0 1 1 2 1 -0 -1 -1 -0 1 3 5 5 4 3 0 -1 -0 1 3 3 0 -2 -5 -4 -2 1 2 1 -0 -1 -1 0 2 3 3 2 1 -0 -0 -0 0 1 1 1 0 -0 -0 -1 -1 -1 -0 -0 -0 0 1
-0 -0 -1 -2 -2 -2 -3 -3 -3 -3 -4 -4 -4 -4 -4 -5 -6 -7 -7 -7 -7 -7 -7 -8 -8 -7 -6 -6 -6 -6 -6 -5 -5 -5 -5 -3 -2 -2 -2 -2 -3 -3 -4 -5 -6 -5 -3 -3 -3 -1 0 1 -0 -1 -0 -0 1 2 4 4 4 3 1 -0 -0 1 2 3 3 0 -3 -5 -4 -2 0 1 1 -0 -0 -0 1 2 3 3 2 1 -0 -0 -0 0 1 1 1 1 0 -0 -0 -1 -1 -1 -0 0 0
-2 -1 -1 -0 -0 -0 -1 -0 -0 -1 -1 -2 -2 -3 -3 -2 -4 -5 -5 -4 -4 -6 -5 -6 -7 -8 -7 -7 -7 -7 -6 -5 -4 -4 -6 -4 -3 -3 -3 -3 -4 -4 -4 -5 -6 -5 -5 -6 -5 -3 -3 -2 -2 -1 0 0 1 2 4 3 3 3 2 1 1 1 2 2 3 2 0 -3 -4 -4 -2 0 1 2 1 0 -0 0 1 2 2 2 1 -0 -0 0 1 1 1 1 1 0 -0 -1 -1 -1 -0 -0 -0
-3 -3 -2 -2 -1 -1 -0 -0 -0 -0 -2 -2 -2 -2 -4 -1 -1 -2 -3 0 0 -1 -1 -0 -2 -4 -5 -5 -6 -7 -8 -6 -4 -4 -7 -4 -3 -3 -5 -4 -4 -4 -4 -5 -5 -5 -7 -8 -6 -4 -6 -6 -4 -3 -1 0 2 3 3 2 2 2 2 3 3 2 1 1 2 2 2 -0 -3 -5 -4 -1 1 2 2 0 -0 -1 -0 1 2 2 2 1 0 -0 0 1 1 1 1 1 -0 -1 -1 -1 -1 -0 -0
-5 -5 -5 -5 -5 -5 -4 -5 -4 -4 -5 -6 -4 -4 -6 -4 -2 -1 -3 1 3 2 1 3 4 3 1 0 -2 -5 -7 -6 -5 -5 -8 -6 -3 -2 -4 -5 -5 -4 -4 -6 -5 -5 -6 -7 -7 -6 -7 -8 -7 -6 -4 -1 1 2 2 1 1 1 2 3 4 3 1 1 1 2 2 1 -0 -3 -5 -3 -0 2 3 1 -0 -1 -1 0 1 2 2 1 0 -0 -0 -0 0 1 1 1 0 -0 -1 -0 -0 -0 0
-6 -6 -8 -8 -9 -10 -9 -9 -9 -8 -8 -8 -6 -5 -7 -7 -4 -2 -3 -2 1 3 2 2 3 4 4 5 3 -0 -3 -4 -5 -7 -7 -6 -5 -4 -2 -4 -5 -6 -4 -6 -6 -5 -5 -6 -7 -7 -8 -9 -9 -8 -6 -3 -1 1 2 1 -0 -0 1 3 4 4 1 0 1 1 2 2 1 -0 -3 -3 -2 -0 2 2 1 -0 -1 -1 0 1 2 2 1 0 -0 -0 0 1 1 1 1 1 0 0 0 0 0
-6 -7 -10 -9 -11 -12 -12 -11 -10 -11 -10 -9 -6 -4 -5 -7 -5 -2 -2 -4 -3 -0 1 0 0 1 2 4 3 1 2 -0 -4 -7 -6 -5 -7 -8 -4 -2 -4 -6 -5 -4 -5 -6 -5 -5 -6 -8 -8 -9 -10 -10 -7 -6 -4 -2 -0 -0 -0 -0 -0 2 3 4 2 0 0 1 2 2 2 1 -0 -2 -3 -2 0 2 2 1 -1 -1 -1 0 2 2 2 1 0 0 0 1 1 1 2 2 1 0 -0 -1 -1
-8 -9 -12 -12 -12 -12 -13 -11 -10 -10 -11 -11 -8 -4 -2 -6 -6 -4 -0 -4 -5 -4 -1 -2 -3 -3 -0 1 -0 -0 2 1 -2 -5 -6 -4 -6 -8 -8 -4 -3 -4 -7 -4 -4 -5 -5 -4 -6 -7 -7 -9 -10 -10 -8 -7 -6 -4 -2 -2 -2 -1 -1 0 2 3 2 1 0 1 2 2 2 2 1 -0 -1 -2 -2 -0 1 1 0 -1 -1 -0 1 2 2 1 1 0 0 0 1 1 1 1 1 -1 -1 -2 -1
-10 -10 -12 -13 -12 -12 -12 -11 -10 -9 -9 -11 -10 -6 -1 -4 -6 -6 -0 -1 -5 -6 -4 -4 -5 -5 -4 -3 -2 -2 -3 -1 -0 -2 -6 -4 -5 -6 -8 -6 -5 -5 -6 -6 -5 -5 -4 -4 -5 -6 -6 -8 -10 -10 -9 -9 -7 -5 -3 -4 -3 -2 -2 -1 1 2 2 0 -0 1 2 2 2 2 2 1 0 -1 -2 -1 -0 1 1 0 -0 -0 0 1 1 1 1 0 0 -0 -0 0 0 0 -0 -1 -1 -1 -1
-11 -12 -12 -12 -12 -11 -11 -11 -10 -9 -9 -10 -9 -7 -4 -2 -5 -8 -4 -1 -4 -7 -6 -6 -7 -7 -7 -6 -4 -3 -5 -3 -1 -1 -3 -3 -4 -4 -5 -5 -5 -5 -5 -6 -6 -5 -3 -4 -4 -4 -5 -7 -8 -9 -10 -10 -8 -6 -4 -4 -4 -4 -3 -2 -0 1 1 -1 -1 -0 1 2 3 3 2 2 1 1 -0 -1 -1 -0 1 1 1 0 -0 -0 0 1 1 0 -0 -0 -0 -0 0 0 0 0 0 0 -0
-12 -11 -11 -12 -11 -11 -10 -11 -10 -8 -8 -8 -8 -8 -8 -2 -3 -7 -9 -5 -4 -6 -7 -8 -8 -9 -8 -8 -6 -5 -4 -4 -2 -1 -2 -1 -2 -3 -3 -3 -4 -4 -4 -6 -6 -6 -5 -5 -4 -3 -5 -5 -6 -8 -10 -9 -8 -6 -6 -5 -5 -4 -4 -3 -1 0 0 -2 -2 -1 0 2 2 3 3 2 2 2 2 -0 -1 -2 -0 1 1 0 -1 -1 -1 0 1 0 -0 -0 -0 0 0 1 1 1 1 1 0
-13 -12 -10 -11 -11 -10 -9 -10 -10 -8 -7 -6 -6 -7 -11 -6 -4 -5 -9 -8 -7 -7 -7 -8 -9 -9 -8 -9 -8 -6 -6 -4 -2 -1 -2 1 -0 -2 -2 -1 -2 -3 -2 -4 -5 -6 -6 -4 -4 -3 -4 -4 -5 -7 -8 -7 -6 -6 -6 -6 -5 -5 -4 -3 -1 0 -0 -3 -3 -2 -1 1 2 3 3 3 3 3 2 1 -0 -2 -2 -0 0 0 -1 -1 -1 -1 1 1 0 0 -0 0 0 1 1 1 1 1 0
-13 -14 -11 -10 -10 -9 -7 -7 -8 -8 -7 -5 -4 -6 -11 -10 -8 -7 -8 -8 -9 -9 -7 -7 -8 -8 -7 -7 -7 -7 -7 -4 -3 -3 -3 1 0 -1 -0 -1 -2 -2 0 -2 -4 -4 -4 -4 -4 -4 -3 -4 -5 -5 -5 -6 -6 -6 -6 -5 -5 -5 -4 -2 -0 0 -1 -3 -4 -3 -2 -1 1 2 3 4 4 3 3 2 1 -1 -2 -2 -1 -0 0 -0 -1 -1 -0 1 1 1 0 0 0 0 0 1 1 1 0
-12 -12 -12 -10 -10 -10 -8 -4 -5 -7 -9 -6 -5 -7 -11 -10 -10 -10 -11 -8 -9 -9 -8 -8 -7 -7 -6 -5 -5 -6 -6 -5 -5 -5 -2 -0 -0 -1 0 -0 -1 -1 -0 -1 -1 -1 -2 -5 -5 -4 -3 -4 -4 -4 -4 -6 -6 -5 -4 -4 -4 -4 -4 -2 0 0 -2 -4 -5 -4 -3 -2 -1 1 2 4 4 4 3 2 2 0 -1 -3 -3 -1 0 0 -0 -1 -1 -0 1 1 1 1 1 1 1 1 1 1 0
-11 -10 -11 -9 -9 -9 -10 -6 -4 -5 -8 -7 -7 -8 -11 -11 -10 -10 -11 -10 -8 -8 -8 -8 -7 -7 -6 -6 -6 -5 -4 -6 -7 -6 -4 -3 -3 -2 -1 1 -0 -2 -2 0 -0 -1 -3 -3 -4 -4 -4 -3 -3 -4 -5 -5 -4 -3 -3 -3 -4 -4 -3 -1 -0 -0 -3 -4 -5 -4 -4 -3 -2 -0 1 3 4 4 3 2 1 1 -0 -2 -3 -2 -0 0 -0 -0 -1 -0 1 2 2 2 2 1 1 1 1 1 0
-11 -11 -11 -9 -8 -7 -8 -7 -7 -6 -6 -7 -8 -9 -10 -11 -10 -9 -8 -9 -8 -7 -7 -7 -7 -7 -6 -6 -7 -7 -6 -7 -8 -7 -7 -6 -5 -4 -4 -1 -2 -3 -1 1 -1 -3 -1 -0 -2 -4 -4 -3 -4 -5 -4 -3 -3 -3 -2 -2 -2 -2 -2 -1 -1 -2 -4 -4 -4 -4 -4 -4 -3 -2 -0 2 3 3 2 1 1 1 1 -0 -1 -2 -2 -1 0 0 0 0 1 2 2 2 2 2 1 0 0 -0 -0
-10 -9 -10 -10 -9 -7 -5 -6 -7 -8 -8 -7 -8 -8 -9 -10 -10 -9 -8 -8 -7 -7 -6 -6 -6 -7 -7 -6 -7 -8 -8 -8 -8 -8 -9 -9 -8 -7 -5 -5 -5 -4 0 -0 -2 -3 1 1 -1 -4 -3 -3 -4 -5 -2 -3 -3 -3 -2 -1 -1 -1 -2 -2 -3 -4 -4 -4 -4 -4 -4 -4 -3 -2 -1 0 1 2 2 1 1 2 2 2 0 -2 -3 -1 -0 1 1 1 1 2 2 2 2 1 0 -0 -1 -1 -1
-10 -8 -8 -9 -9 -8 -6 -5 -5 -7 -9 -8 -8 -8 -9 -8 -8 -8 -8 -6 -6 -7 -7 -5 -5 -6 -7 -6 -6 -7 -8 -8 -8 -8 -9 -9 -10 -9 -7 -7 -7 -6 -1 -3 -3 -2 1 0 -2 -3 -1 -2 -4 -5 -3 -3 -4 -3 -0 0 0 -0 -1 -2 -3 -4 -5 -4 -4 -4 -4 -3 -3 -3 -2 -1 -0 0 1 2 2 2 2 2 1 -1 -2 -2 -1 1 2 2 2 1 1 1 1 1 -0 -0 -1 -1 -0
-10 -10 -7 -7 -8 -8 -8 -7 -6 -5 -7 -8 -8 -8 -8 -8 -7 -7 -8 -7 -6 -6 -7 -6 -6 -6 -6 -7 -7 -7 -8 -8 -8 -8 -9 -8 -9 -10 -8 -9 -8 -7 -5 -6 -5 -2 1 -1 -2 -2 1 -2 -4 -5 -2 -3 -4 -3 -0 1 1 1 0 -1 -3 -4 -4 -4 -4 -3 -3 -2 -3 -3 -3 -2 -2 -1 0 1 2 2 2 2 1 0 -1 -2 -1 -0 1 2 2 1 0 0 0 0 0 -0 -0 -1 -0
-8 -9 -9 -6 -6 -7 -7 -8 -7 -6 -6 -8 -8 -8 -8 -9 -8 -7 -7 -8 -7 -6 -7 -7 -6 -6 -6 -7 -8 -8 -9 -9 -9 -9 -9 -8 -8 -8 -8 -8 -8 -7 -8 -8 -6 -2 -1 -3 -2 0 1 -2 -3 -3 -3 -4 -3 -2 -2 -0 1 1 0 -1 -2 -3 -4 -4 -3 -2 -1 -1 -2 -3 -3 -3 -3 -2 -1 1 1 2 1 1 1 1 0 -1 -1 -0 1 1 1 1 0 0 0 1 1 1 1 0 0
-7 -8 -10 -7 -5 -5 -6 -7 -8 -8 -7 -7 -8 -9 -7 -9 -9 -8 -6 -7 -8 -7 -6 -8 -7 -6 -5 -7 -8 -9 -9 -10 -10 -10 -8 -8 -8 -7 -6 -6 -6 -7 -9 -8 -6 -4 -5 -4 -0 2 0 -2 -2 -2 -4 -3 -2 -2 -3 -0 0 0 0 -0 -1 -2 -4 -4 -3 -1 1 1 -1 -3 -4 -4 -4 -3 -2 -0 0 1 1 1 1 1 1 0 -0 -1 -0 0 1 1 1 1 2 2 3 2 2 2 1
-7 -6 -8 -8 -7 -6 -6 -6 -7 -8 -8 -7 -8 -9 -8 -8 -9 -10 -8 -7 -7 -8 -7 -8 -10 -10 -8 -6 -7 -9 -9 -8 -9 -10 -8 -8 -7 -7 -4 -5 -5 -6 -7 -7 -6 -6 -7 -3 0 2 -1 -1 -1 -2 -4 -1 -1 -2 -2 -0 -0 -0 1 0 -0 -2 -2 -3 -1 1 4 1 -1 -3 -4 -4 -4 -3 -2 -1 -0 0 1 1 1 2 2 1 1 -0 -1 -0 0 1 2 3 4 4 3 3 3 2 2
-7 -5 -4 -7 -8 -7 -7 -7 -7 -7 -8 -8 -8 -8 -9 -8 -9 -10 -10 -8 -7 -8 -8 -8 -9 -11 -13 -9 -7 -7 -9 -6 -7 -8 -8 -7 -6 -6 -4 -4 -5 -5 -5 -6 -7 -8 -6 -2 -0 -0 -1 0 -0 -1 -1 -0 -1 -2 0 -0 -1 -1 1 1 0 -1 -1 -1 0 2 4 1 -2 -3 -4 -4 -3 -3 -2 -1 -1 -0 0 1 1 1 2 2 2 1 0 -0 1 2 4 4 4 4 3 2 2 2 1
-8 -6 -3 -4 -6 -7 -7 -8 -8 -8 -8 -8 -8 -8 -9 -9 -9 -9 -10 -9 -8 -8 -8 -8 -8 -9 -12 -11 -8 -6 -8 -6 -6 -7 -8 -6 -6 -5 -5 -4 -4 -4 -3 -5 -6 -7 -5 -3 -2 -1 1 1 0 -0 -1 -2 -1 1 2 0 -1 -1 1 1 0 0 0 0 1 2 2 0 -1 -2 -3 -3 -2 -2 -2 -2 -2 -1 -1 -0 0 1 2 3 3 3 2 1 1 2 3 3 3 2 2 1 1 1 1
-7 -7 -6 -6 -6 -7 -7 -8 -8 -8 -7 -8 -7 -7 -8 -9 -9 -9 -9 -8 -9 -9 -8 -8 -8 -9 -8 -9 -8 -6 -6 -6 -5 -5 -6 -6 -6 -5 -5 -5 -4 -3 -3 -3 -4 -5 -5 -4 -3 -1 1 0 -0 -1 -3 -0 3 4 2 0 -1 -1 0 1 1 1 2 1 2 2 1 0 -1 -2 -3 -2 -1 -1 -2 -3 -3 -3 -2 -1 1 2 3 4 4 4 3 1 0 -0 -0 1 1 1 1 1 1 0 0
-5 -5 -6 -7 -8 -8 -8 -8 -8 -8 -7 -7 -7 -7 -7 -9 -9 -9 -10 -9 -9 -10 -10 -6 -6 -8 -8 -8 -7 -6 -6 -6 -6 -5 -5 -6 -6 -6 -5 -5 -5 -5 -3 -2 -3 -3 -3 -4 -3 -1 -0 -2 -2 -2 -1 4 4 3 1 0 -0 0 1 1 1 1 2 2 1 1 0 -1 -2 -2 -2 -0 -0 -1 -3 -4 -4 -4 -2 -0 2 3 4 4 4 3 2 1 -1 -2 -2 -1 0 1 1 1 1 0 0
-4 -4 -4 -6 -8 -9 -9 -8 -8 -8 -7 -6 -6 -7 -7 -8 -8 -9 -9 -10 -9 -9 -11 -8 -5 -4 -7 -7 -7 -7 -6 -7 -8 -7 -7 -6 -6 -6 -7 -6 -6 -6 -5 -4 -2 -2 -1 -2 -2 -2 -3 -4 -4 -2 3 5 4 2 2 2 2 2 1 -0 0 1 2 1 0 -0 -1 -2 -2 -1 1 1 -1 -2 -4 -4 -3 -2 -0 2 4 4 4 3 2 2 1 -0 -1 -3 -3 -2 -0 1 2 1 1 1 1
-6 -6 -5 -5 -7 -8 -9 -9 -8 -7 -7 -6 -6 -6 -7 -8 -8 -8 -9 -9 -8 -8 -7 -8 -5 -3 -3 -4 -6 -7 -8 -8 -8 -9 -8 -7 -7 -7 -7 -7 -7 -6 -6 -5 -3 -1 -0 -1 -2 -3 -6 -6 -4 -0 5 4 3 2 4 4 3 2 1 -0 0 0 -0 -0 -1 -2 -3 -3 -2 -0 2 -0 -2 -2 -2 -1 0 2 3 3 4 3 3 1 1 0 -0 -0 -1 -2 -2 -2 -1 1 2 3 3 2 2
-6 -7 -8 -8 -7 -8 -9 -8 -8 -7 -6 -6 -6 -6 -7 -7 -8 -8 -9 -10 -10 -8 -6 -6 -5 -3 -1 -2 -4 -6 -8 -8 -9 -9 -8 -6 -7 -8 -8 -7 -6 -6 -7 -6 -4 -1 -0 -0 -2 -4 -8 -6 -3 0 3 3 3 3 4 3 2 1 3 1 -0 -1 -3 -2 -3 -3 -3 -3 -2 -0 1 -0 -1 -1 0 2 3 3 3 3 2 1 0 -0 -1 -1 -1 -0 0 -0 -1 -1 0 2 3 4 4 4 3
-5 -6 -8 -9 -9 -8 -8 -8 -8 -7 -6 -6 -6 -7 -8 -8 -8 -8 -9 -10 -11 -10 -8 -6 -5 -4 -2 -1 -2 -4 -6 -8 -9 -9 -10 -8 -6 -5 -8 -9 -7 -6 -5 -7 -6 -3 -1 -0 -2 -5 -7 -5 -2 -0 1 1 1 2 1 -1 1 2 2 -1 -1 -1 -4 -4 -4 -4 -4 -3 -2 -0 1 1 1 0 1 3 3 3 2 1 1 -0 -1 -1 -2 -1 -1 0 1 2 2 2 2 2 3 4 4 4 3
-8 -7 -6 -7 -8 -8 -7 -7 -7 -7 -7 -6 -6 -7 -7 -8 -8 -9 -9 -9 -9 -9 -8 -6 -5 -5 -4 -1 -0 -2 -4 -6 -7 -8 -8 -10 -8 -5 -2 -4 -5 -5 -3 -4 -5 -5 -2 -2 -4 -5 -6 -5 -3 -2 -2 -2 -2 -1 -2 -1 1 2 -3 -3 -2 -3 -6 -5 -5 -5 -5 -3 -1 1 4 3 2 1 2 3 3 2 1 1 -0 -1 -1 -2 -2 -1 1 2 3 4 4 3 2 2 2 3 3 3 2
-8 -9 -7 -5 -6 -7 -7 -8 -7 -7 -7 -6 -6 -6 -7 -6 -7 -7 -8 -8 -8 -7 -7 -4 -3 -3 -6 -4 -2 -2 -4 -6 -7 -8 -7 -7 -10 -10 -6 -0 0 -1 -1 -2 -3 -4 -4 -4 -5 -6 -6 -5 -4 -3 -2 -1 -1 -0 -0 2 1 -2 -6 -2 -3 -5 -7 -6 -6 -6 -5 -3 0 3 5 3 2 2 2 2 2 1 1 1 0 -0 -0 -0 0 1 3 4 4 4 3 2 1 1 1 1 1 2 1
-7 -7 -9 -8 -7 -6 -7 -8 -8 -8 -7 -6 -5 -5 -6 -6 -5 -5 -6 -8 -9 -8 -7 -6 -3 -1 -2 -5 -5 -5 -5 -7 -9 -10 -11 -9 -9 -12 -16 -9 -3 1 2 1 -0 -3 -5 -6 -6 -6 -6 -4 -2 -0 2 4 5 4 4 2 -1 -3 -1 0 -2 -5 -4 -5 -6 -6 -4 -1 2 4 3 2 2 2 2 1 1 2 2 2 1 1 1 2 3 4 4 4 3 3 2 1 1 0 -0 -0 1 2 2
-8 -6 -6 -7 -7 -7 -6 -8 -8 -9 -8 -6 -5 -4 -3 -4 -5 -5 -5 -6 -8 -8 -7 -7 -6 -3 1 -1 -3 -4 -5 -8 -10 -11 -13 -14 -11 -9 -10 -13 -9 -3 2 6 6 2 -5 -7 -7 -6 -5 -3 -0 3 5 7 8 8 6 3 1 2 5 2 -0 -1 -1 -4 -4 -2 1 2 3 4 2 3 3 2 1 2 2 3 2 3 3 2 2 3 4 4 4 3 2 1 1 1 1 0 -0 -0 1 2 3
-8 -8 -6 -5 -6 -7 -7 -7 -8 -9 -9 -8 -7 -5 -4 -3 -4 -5 -5 -5 -6 -6 -6 -6 -6 -6 -3 -0 -0 -2 -3 -7 -9 -11 -10 -13 -12 -10 -4 -8 -11 -12 -8 -0 7 9 -0 -6 -8 -6 -3 -1 1 3 5 6 7 7 6 5 5 4 3 1 2 2 2 2 3 4 4 5 4 4 3 3 3 2 3 4 4 3 3 3 3 2 3 3 4 4 4 3 2 1 1 0 0 0 -0 -0 1 2 4
-5 -6 -8 -8 -7 -7 -8 -8 -8 -8 -8 -7 -7 -6 -5 -4 -4 -4 -5 -6 -7 -7 -6 -6 -6 -6 -7 -4 -2 -2 -3 -5 -7 -9 -9 -11 -14 -16 -12 -9 -10 -12 -13 -10 -2 6 6 -1 -6 -6 -2 0 2 3 5 4 5 5 6 6 6 4 4 4 4 5 6 7 7 7 6 6 5 4 3 3 4 4 4 5 4 4 4 3 2 2 3 4 5 5 4 3 2 1 1 1 1 1 0 0 1 2 4
-5 -5 -7 -8 -8 -7 -7 -8 -8 -8 -8 -6 -6 -5 -6 -6 -5 -5 -5 -7 -8 -8 -7 -6 -6 -6 -8 -8 -5 -3 -3 -5 -6 -7 -8 -9 -12 -16 -18 -13 -6 -1 -1 -4 -5 -3 3 1 -2 -4 -3 -1 1 3 4 3 4 4 5 5 6 7 7 6 5 5 4 3 4 5 6 6 5 5 5 4 4 5 6 5 4 4 4 3 2 2 3 4 5 5 5 4 3 2 1 1 0 -0 -1 -0 0 1 3
-6 -6 -5 -6 -7 -8 -7 -6 -6 -7 -7 -7 -6 -6 -6 -6 -5 -5 -4 -5 -7 -8 -7 -6 -6 -7 -8 -9 -8 -5 -2 -3 -4 -6 -7 -8 -9 -10 -12 -14 -14 -11 -4 -1 -1 -2 -2 -0 -0 -1 -4 -2 1 3 3 3 3 4 3 5 7 7 6 5 4 2 -1 -0 3 5 5 5 5 5 4 4 5 6 6 4 4 3 3 2 2 2 3 4 5 5 5 4 3 2 1 0 -1 -2 -1 -0 1 2 3
-6 -6 -6 -6 -7 -7 -7 -6 -5 -6 -6 -6 -7 -7 -7 -6 -5 -4 -3 -4 -6 -7 -8 -7 -6 -5 -6 -8 -9 -8 -5 -3 -3 -4 -7 -8 -8 -8 -7 -10 -14 -17 -18 -12 -6 -1 -0 -1 -0 0 -2 -2 1 4 4 3 3 3 3 5 6 6 5 5 4 2 1 5 7 6 4 5 5 4 2 3 5 6 4 3 3 2 2 1 2 2 3 4 5 5 5 4 3 2 1 -0 -0 -0 0 2 3 4 4
-6 -6 -7 -7 -6 -6 -6 -6 -6 -6 -6 -6 -6 -6 -7 -6 -6 -5 -4 -4 -5 -6 -6 -6 -5 -5 -5 -6 -7 -7 -6 -5 -4 -3 -4 -6 -7 -6 -6 -5 -4 -4 -6 -7 -6 -3 1 -0 0 1 -0 -1 1 4 4 4 4 4 5 6 6 6 7 7 6 6 8 10 8 5 5 5 4 1 1 4 4 3 2 2 2 2 2 2 3 3 5 5 5 5 4 4 3 2 1 0 1 1 2 4 6 6 5
-6 -5 -5 -6 -6 -5 -4 -4 -5 -6 -6 -6 -6 -6 -6 -7 -6 -6 -4 -4 -4 -5 -5 -6 -5 -5 -4 -5 -5 -6 -5 -5 -5 -4 -2 -1 -3 -4 -4 -4 -5 -5 -5 -4 -5 -5 -3 -1 0 1 0 -1 1 3 3 3 5 6 6 6 6 6 7 8 8 9 10 8 6 5 6 4 2 1 3 4 3 2 3 3 3 3 4 4 4 5 6 6 5 4 4 3 2 1 0 1 2 3 5 7 7 7 6
-4 -4 -4 -3 -4 -4 -5 -4 -4 -5 -6 -6 -6 -7 -7 -7 -6 -5 -3 -2 -3 -4 -5 -6 -5 -4 -4 -4 -5 -5 -5 -4 -5 -5 -4 -2 -2 -3 -5 -5 -6 -6 -7 -6 -6 -5 -5 -4 -2 -0 0 1 1 1 2 4 5 6 6 5 5 5 6 7 7 8 7 5 5 5 5 2 2 4 5 4 3 4 6 5 5 6 6 6 6 7 6 5 4 4 3 2 1 0 0 2 4 6 8 8 8 6 5
-4 -4 -4 -4 -3 -3 -4 -5 -5 -5 -5 -6 -6 -7 -7 -7 -6 -5 -4 -3 -3 -3 -4 -4 -4 -3 -3 -3 -4 -4 -4 -4 -4 -4 -5 -4 -3 -3 -4 -5 -5 -4 -4 -4 -4 -5 -5 -3 -1 0 2 2 1 1 2 3 4 4 4 4 5 5 6 6 6 5 5 5 5 4 3 3 5 6 6 5 6 7 7 7 8 8 8 8 7 6 4 3 3 2 1 0 -0 -0 1 4 7 9 9 8 6 5 4
-4 -4 -3 -4 -4 -4 -4 -4 -5 -5 -5 -6 -6 -6 -5 -5 -6 -6 -5 -4 -4 -3 -2 -3 -3 -2 -2 -2 -3 -4 -4 -4 -4 -4 -4 -4 -4 -4 -3 -4 -4 -4 -3 -3 -4 -4 -4 -3 -0 2 4 3 2 2 1 2 3 4 4 5 5 6 6 5 5 5 4 5 4 4 4 5 6 6 6 7 8 8 8 8 8 8 7 7 6 4 2 2 2 1 0 -1 -1 0 3 6 7 7 6 6 5 5 4
Height
5822 5821 5820 5819 5818 5817 5816 5815 5814 5813 5812 5811 5810 5809 5808 5807 5806 5805 5804 5804 5803 5803 5802 5802 5801 5801 5801 5801 5801 5801 5801 5801 5801 5800 5800 5800 5800 5801 5801 5801 5802 5802 5802 5802 5803 5803 5804 5804 5805 5806 5806 5806 5806 5805 5805 5805 5806 5806 5808 5809 5809 5810 5811 5812 5812 5813 5814 5815 5817 5818 5819 5820 5821 5822 5823 5824 5826 5827 5829 5830 5832 5833 5835 5836 5838 5839 5841 5842 5843 5844 5844 5845 5846 5847 5849 5850 5852 5853 5854 5855 5856 5857 5857
5819 5818 5817 5816 5814 5814 5813 5811 5810 5809 5808 5807 5806 5805 5804 5803 5802 5801 5800 5799 5798 5798 5797 5796 5796 5796 5796 5795 5795 5795 5795 5795 5795 5795 5795 5795 5795 5795 5795 5796 5796 5796 5797 5797 5797 5798 5798 5799 5800 5801 5802 5802 5801 5801 5801 5801 5801 5802 5803 5804 5804 5805 5806 5807 5808 5809 5809 5811 5812 5814 5815 5816 5816 5817 5819 5820 5822 5823 5825 5826 5828 5829 5831 5833 5834 5836 5837 5839 5839 5840 5841 5842 5843 5844 5845 5847 5849 5850 5851 5852 5854 5855 5855
5815 5814 5813 5812 5811 5810 5809 5808 5806 5805 5804 5803 5802 5801 5799 5798 5797 5796 5795 5794 5793 5792 5792 5791 5791 5790 5790 5790 5789 5789 5789 5789 5789 5789 5789 5789 5789 5789 5790 5790 5790 5791 5791 5791 5792 5793 5793 5793 5794 5795 5796 5797 5797 5797 5797 5797 5797 5797 5798 5798 5799 5800 5802 5803 5804 5804 5805 5806 5807 5809 5810 5811 5812 5813 5814 5816 5817 5819 5821 5822 5824 5826 5827 5829 5830 5832 5834 5835 5836 5837 5838 5839 5841 5842 5843 5844 5845 5847 5849 5849 5850 5852 5854
5811 5810 5809 5808 5807 5806 5804 5803 5802 5801 5800 5799 5797 5796 5795 5794 5793 5791 5790 5789 5788 5787 5786 5786 5785 5784 5784 5784 5784 5783 5783 5783 5783 5783 5783 5783 5783 5784 5784 5784 5784 5784 5785 5786 5786 5787 5787 5788 5789 5789 5790 5791 5792 5792 5792 5792 5792 5793 5793 5793 5794 5795 5797 5798 5799 5799 5801 5802 5803 5804 5805 5806 5808 5809 5809 5811 5813 5815 5817 5818 5820 5821 5823 5825 5826 5828 5829 5831 5832 5834 5835 5837 5838 5839 5840 5842 5843 5844 5845 5847 5848 5849 5851
5808 5806 5805 5804 5803 5801 5800 5799 5798 5796 5795 5794 5793 5791 5790 5789 5788 5786 5785 5784 5783 5782 5781 5780 5779 5779 5778 5778 5777 5777 5777 5777 5777 5777 5777 5777 5777 5777 5777 5777 5778 5778 5779 5779 5780 5781 5781 5782 5783 5783 5784 5785 5786 5787 5787 5787 5788 5788 5789 5789 5789 5790 5791 5792 5794 5794 5796 5797 5798 5799 5800 5802 5803 5804 5805 5807 5808 5810 5812 5814 5816 5817 5819 5821 5822 5824 5825 5827 5829 5830 5832 5834 5835 5836 5837 5839 5840 5841 5842 5844 5845 5846 5848
5804 5802 5801 5800 5799 5797 5796 5794 5793 5792 5791 5789 5788 5787 5785 5784 5783 5781 5780 5779 5778 5776 5775 5774 5773 5773 5772 5771 5771 5770 5770 5770 5770 5770 5770 5770 5770 5770 5770 5770 5770 5771 5772 5773 5774 5774 5775 5776 5777 5777 5777 5778 5779 5781 5781 5782 5782 5783 5784 5784 5784 5785 5785 5787 5788 5789 5790 5792 5793 5794 5795 5797 5798 5799 5800 5802 5804 5805 5808 5809 5811 5813 5814 5816 5818 5819 5821 5823 5825 5827 5828 5830 5831 5833 5834 5835 5837 5838 5839 5840 5842 5844 5845
5799 5798 5797 5796 5794 5793 5792 5790 5789 5787 5786 5785 5783 5782 5780 5779 5778 5776 5775 5774 5773 5771 5770 5769 5768 5767 5766 5765 5764 5764 5764 5763 5763 5763 5763 5763 5763 5763 5763 5763 5763 5764 5764 5765 5766 5767 5768 5769 5770 5771 5771 5771 5773 5774 5775 5776 5777 5777 5778 5779 5779 5780 5780 5781 5782 5783 5785 5786 5788 5789 5790 5792 5793 5794 5796 5797 5799 5801 5803 5805 5807 5808 5810 5811 5813 5815 5817 5819 5821 5823 5824 5826 5828 5829 5831 5832 5834 5835 5836 5837 5839 5840 5841
5795 5794 5792 5791 5790 5788 5787 5785 5784 5783 5781 5780 5779 5777 5776 5774 5773 5771 5770 5769 5767 5766 5765 5764 5762 5761 5760 5759 5758 5757 5757 5756 5756 5756 5756 5756 5755 5755 5756 5756 5756 5756 5757 5758 5759 5760 5761 5762 5763 5764 5764 5764 5766 5768 5769 5770 5771 5772 5772 5773 5774 5774 5775 5775 5776 5777 5779 5781 5782 5784 5785 5786 5788 5789 5791 5793 5794 5796 5798 5800 5801 5803 5805 5807 5808 5810 5813 5815 5817 5819 5821 5823 5824 5826 5827 5829 5830 5831 5833 5834 5835 5837 5838
5791 5789 5788 5786 5784 5783 5782 5780 5779 5777 5776 5774 5773 5772 5770 5769 5767 5766 5764 5763 5762 5760 5759 5758 5757 5755 5754 5753 5752 5751 5750 5749 5749 5749 5748 5748 5748 5748 5748 5749 5749 5749 5749 5750 5751 5752 5753 5754 5755 5756 5756 5757 5759 5761 5762 5764 5765 5766 5766 5767 5768 5769 5769 5769 5770 5771 5773 5774 5776 5778 5779 5781 5783 5784 5786 5788 5789 5791 5793 5794 5796 5798 5800 5802 5804 5806 5808 5810 5813 5815 5817 5819 5820 5822 5824 5825 5826 5828 5829 5831 5832 5834 5835
5786 5784 5783 5781 5779 5778 5776 5774 5773 5772 5770 5769 5767 5765 5764 5763 5761 5760 5758 5757 5756 5754 5753 5752 5751 5749 5748 5747 5746 5745 5744 5743 5742 5741 5741 5740 5740 5740 5740 5741 5741 5742 5742 5743 5744 5744 5745 5746 5747 5747 5747 5749 5751 5753 5755 5757 5758 5759 5760 5761 5761 5762 5763 5764 5764 5765 5766 5768 5770 5772 5774 5775 5777 5779 5781 5782 5784 5786 5788 5789 5791 5793 5795 5797 5799 5802 5804 5806 5808 5810 5812 5814 5816 5818 5819 5821 5823 5824 5826 5827 5829 5830 5831
5781 5779 5777 5776 5774 5772 5770 5769 5767 5765 5764 5762 5761 5759 5758 5756 5754 5753 5752 5750 5749 5748 5746 5745 5744 5743 5742 5741 5740 5739 5738 5737 5736 5734 5734 5733 5732 5732 5732 5733 5733 5734 5734 5735 5736 5737 5738 5738 5738 5739 5739 5741 5743 5745 5747 5749 5751 5752 5753 5754 5755 5756 5756 5757 5759 5759 5760 5762 5763 5765 5767 5769 5771 5774 5775 5777 5779 5780 5782 5784 5786 5788 5790 5792 5795 5797 5799 5801 5804 5806 5808 5810 5812 5813 5815 5817 5819 5820 5822 5824 5825 5826 5828
5776 5774 5772 5770 5769 5767 5765 5763 5761 5759 5758 5756 5754 5753 5751 5749 5748 5746 5744 5743 5741 5740 5739 5737 5736 5735 5734 5733 5732 5732 5731 5730 5729 5728 5727 5726 5725 5724 5724 5724 5724 5725 5726 5727 5728 5729 5730 5730 5730 5730 5731 5733 5735 5737 5739 5741 5743 5745 5746 5747 5748 5749 5749 5751 5752 5753 5754 5755 5757 5759 5761 5763 5765 5768 5769 5771 5773 5775 5777 5779 5781 5783 5785 5787 5789 5792 5794 5797 5799 5801 5803 5805 5807 5809 5811 5813 5814 5816 5818 5819 5821 5823 5824
5771 5769 5767 5765 5763 5761 5759 5757 5755 5754 5752 5750 5748 5746 5744 5742 5740 5738 5736 5734 5733 5731 5729 5728 5727 5726 5724 5724 5723 5723 5722 5721 5721 5720 5719 5718 5717 5717 5716 5716 5716 5717 5717 5719 5720 5721 5721 5721 5722 5723 5724 5725 5727 5728 5730 5732 5734 5736 5738 5739 5741 5742 5743 5744 5745 5747 5748 5749 5750 5752 5754 5756 5759 5761 5763 5765 5767 5769 5771 5773 5775 5778 5780 5782 5784 5787 5789 5792 5794 5796 5798 5800 5802 5804 5806 5808 5810 5812 5814 5815 5817 5819 5821
5766 5764 5762 5760 5758 5756 5754 5752 5750 5748 5746 5744 5742 5739 5737 5735 5733 5731 5729 5727 5724 5723 5721 5719 5717 5716 5714 5713 5713 5712 5712 5711 5711 5710 5709 5709 5709 5708 5708 5708 5708 5708 5709 5710 5711 5711 5712 5712 5713 5714 5716 5717 5718 5720 5722 5724 5726 5728 5729 5731 5733 5734 5735 5737 5738 5739 5741 5743 5744 5745 5747 5749 5752 5754 5757 5759 5761 5763 5765 5768 5770 5772 5774 5777 5779 5782 5784 5787 5789 5791 5793 5795 5797 5799 5801 5804 5805 5808 5809 5811 5813 5815 5817
5762 5760 5758 5755 5753 5751 5749 5746 5744 5742 5740 5738 5735 5733 5730 5728 5725 5723 5721 5719 5717 5714 5712 5710 5709 5707 5705 5704 5702 5701 5701 5700 5699 5699 5699 5698 5698 5698 5698 5698 5698 5699 5699 5700 5701 5702 5702 5703 5704 5706 5707 5709 5710 5711 5713 5715 5717 5719 5721 5723 5724 5725 5727 5729 5731 5733 5734 5735 5737 5739 5741 5743 5745 5748 5750 5752 5755 5757 5759 5762 5764 5766 5769 5771 5774 5776 5779 5781 5784 5786 5788 5790 5792 5794 5797 5799 5801 5803 5805 5807 5809 5812 5814
5759 5756 5754 5751 5749 5746 5744 5741 5739 5736 5734 5731 5729 5726 5724 5721 5718 5716 5714 5711 5709 5706 5704 5702 5700 5698 5696 5694 5693 5691 5690 5689 5688 5687 5687 5686 5686 5686 5687 5687 5688 5688 5689 5689 5690 5691 5693 5694 5695 5696 5698 5699 5701 5703 5704 5707 5709 5711 5713 5714 5715 5717 5718 5721 5723 5725 5727 5728 5730 5732 5734 5736 5738 5740 5743 5745 5748 5750 5753 5755 5758 5760 5763 5765 5768 5770 5773 5775 5778 5780 5783 5785 5787 5789 5792 5794 5796 5799 5801 5803 5805 5808 5810
5754 5752 5749 5747 5744 5741 5739 5736 5733 5730 5727 5725 5722 5719 5716 5714 5711 5708 5706 5703 5700 5698 5695 5693 5691 5689 5687 5685 5683 5682 5680 5679 5678 5677 5676 5674 5674 5674 5674 5675 5675 5676 5677 5678 5679 5680 5682 5683 5685 5686 5688 5690 5692 5694 5695 5698 5700 5702 5704 5705 5707 5708 5709 5712 5714 5717 5719 5721 5723 5725 5727 5729 5731 5733 5735 5738 5741 5744 5746 5749 5752 5754 5757 5759 5762 5765 5767 5770 5772 5775 5777 5780 5782 5784 5787 5789 5791 5794 5796 5799 5801 5804 5806
5750 5747 5745 5742 5739 5737 5734 5731 5728 5725 5722 5719 5716 5713 5710 5707 5704 5701 5698 5695 5692 5689 5686 5684 5682 5679 5677 5675 5673 5671 5669 5669 5667 5666 5665 5664 5663 5662 5661 5661 5662 5663 5664 5666 5668 5669 5670 5672 5674 5675 5677 5679 5681 5684 5686 5689 5691 5693 5695 5696 5698 5699 5701 5703 5706 5709 5711 5714 5716 5717 5719 5721 5724 5726 5728 5730 5734 5736 5739 5742 5745 5748 5750 5753 5756 5759 5761 5764 5767 5769 5772 5774 5777 5779 5782 5784 5787 5789 5792 5794 5797 5799 5801
5745 5743 5740 5737 5734 5732 5729 5726 5723 5720 5717 5714 5711 5708 5704 5701 5697 5694 5691 5687 5684 5680 5677 5674 5672 5669 5667 5664 5662 5660 5658 5657 5656 5654 5654 5653 5652 5651 5650 5649 5649 5649 5651 5652 5654 5656 5658 5660 5661 5664 5665 5668 5670 5673 5675 5679 5681 5684 5685 5687 5689 5690 5692 5694 5697 5700 5703 5705 5708 5710 5712 5714 5716 5719 5721 5723 5726 5729 5732 5735 5738 5741 5744 5747 5749 5752 5755 5758 5761 5764 5766 5769 5772 5774 5777 5779 5781 5784 5787 5789 5792 5794 5797
5741 5738 5735 5733 5729 5727 5724 5721 5719 5715 5712 5709 5705 5702 5699 5695 5692 5688 5684 5681 5677 5673 5669 5665 5662 5659 5656 5653 5650 5649 5647 5645 5644 5642 5641 5641 5640 5639 5638 5637 5637 5637 5638 5639 5640 5642 5644 5647 5649 5651 5653 5656 5658 5661 5664 5668 5671 5674 5675 5677 5679 5681 5684 5686 5688 5691 5693 5696 5699 5702 5704 5706 5708 5711 5714 5716 5719 5722 5725 5728 5731 5734 5737 5740 5743 5746 5749 5752 5755 5758 5761 5764 5766 5769 5771 5774 5776 5779 5781 5784 5787 5789 5792
5737 5734 5731 5728 5725 5722 5719 5716 5713 5710 5707 5703 5700 5696 5692 5689 5685 5682 5677 5674 5670 5665 5661 5657 5653 5649 5645 5642 5639 5637 5635 5633 5631 5630 5629 5628 5627 5627 5626 5625 5625 5625 5625 5625 5626 5628 5630 5633 5635 5638 5640 5643 5646 5649 5652 5656 5659 5662 5664 5667 5669 5671 5674 5677 5679 5682 5684 5687 5690 5693 5696 5698 5701 5703 5706 5709 5712 5714 5717 5720 5723 5726 5729 5733 5736 5739 5742 5745 5749 5752 5754 5758 5760 5763 5766 5768 5771 5774 5776 5779 5782 5785 5787
5732 5729 5726 5723 5720 5716 5713 5710 5706 5703 5700 5696 5693 5689 5684 5680 5677 5673 5668 5664 5661 5657 5652 5648 5644 5639 5635 5632 5629 5626 5623 5621 5619 5618 5616 5615 5614 5614 5613 5613 5613 5613 5613 5613 5613 5614 5616 5618 5621 5624 5627 5629 5633 5636 5640 5644 5647 5650 5653 5655 5658 5661 5664 5667 5670 5672 5674 5677 5680 5684 5687 5690 5693 5695 5698 5701 5704 5707 5709 5712 5715 5719 5722 5725 5729 5732 5735 5739 5742 5745 5749 5751 5754 5758 5760 5763 5765 5768 5771 5774 5777 5780 5783
5727 5724 5721 5718 5714 5711 5708 5704 5700 5696 5692 5688 5684 5679 5674 5670 5666 5662 5657 5653 5649 5646 5642 5638 5634 5630 5626 5622 5619 5615 5612 5609 5607 5605 5604 5602 5601 5601 5600 5600 5599 5600 5600 5600 5601 5602 5603 5604 5607 5609 5612 5615 5619 5622 5627 5631 5634 5637 5640 5644 5647 5650 5654 5657 5660 5663 5665 5668 5671 5674 5678 5682 5685 5688 5690 5693 5696 5699 5702 5704 5708 5711 5714 5718 5721 5724 5728 5732 5735 5739 5742 5745 5749 5752 5755 5758 5760 5763 5766 5769 5771 5774 5777
5722 5719 5715 5712 5709 5705 5701 5698 5693 5688 5683 5679 5674 5669 5664 5659 5654 5651 5646 5640 5636 5633 5629 5625 5621 5618 5614 5611 5608 5604 5600 5598 5595 5593 5591 5589 5589 5588 5587 5587 5587 5586 5587 5588 5588 5589 5590 5591 5593 5595 5598 5601 5604 5608 5613 5617 5621 5624 5628 5631 5635 5639 5642 5646 5650 5653 5655 5658 5662 5665 5669 5672 5676 5679 5682 5685 5688 5691 5694 5697 5700 5703 5706 5710 5713 5717 5721 5724 5728 5732 5736 5739 5743 5746 5749 5752 5755 5758 5760 5763 5765 5769 5772
5717 5713 5709 5706 5703 5699 5694 5690 5686 5680 5675 5669 5664 5659 5654 5648 5643 5639 5634 5629 5624 5619 5616 5612 5608 5605 5602 5599 5596 5592 5589 5587 5584 5581 5579 5577 5576 5575 5574 5574 5574 5573 5574 5574 5575 5576 5577 5578 5579 5581 5584 5587 5590 5594 5599 5603 5607 5611 5614 5618 5622 5626 5630 5635 5639 5642 5644 5648 5651 5655 5659 5663 5667 5670 5674 5677 5680 5683 5686 5689 5692 5695 5699 5702 5706 5709 5713 5717 5721 5725 5729 5732 5736 5739 5743 5746 5749 5752 5754 5757 5760 5763 5766
5711 5708 5704 5700 5696 5691 5687 5682 5677 5672 5666 5660 5654 5649 5644 5637 5631 5626 5622 5618 5612 5607 5603 5599 5595 5592 5589 5586 5583 5580 5577 5575 5573 5570 5567 5565 5564 5563 5561 5561 5560 5560 5560 5561 5562 5563 5564 5565 5567 5568 5570 5573 5576 5579 5584 5589 5593 5597 5601 5605 5609 5613 5618 5622 5627 5630 5634 5637 5641 5645 5649 5653 5657 5661 5665 5668 5671 5674 5678 5681 5684 5687 5690 5694 5698 5702 5705 5709 5713 5717 5721 5725 5729 5733 5736 5740 5743 5746 5749 5751 5754 5758 5761
5705 5701 5697 5693 5689 5684 5679 5673 5668 5662 5656 5650 5644 5638 5633 5627 5621 5614 5609 5605 5601 5595 5591 5587 5583 5579 5576 5573 5570 5567 5564 5562 5561 5559 5556 5554 5552 5551 5549 5549 5548 5547 5547 5548 5548 5549 5551 5552 5554 5556 5558 5559 5562 5566 5570 5574 5579 5583 5588 5592 5596 5600 5605 5610 5614 5619 5622 5626 5630 5634 5639 5643 5647 5651 5655 5659 5663 5666 5669 5672 5676 5679 5683 5686 5690 5694 5698 5701 5705 5709 5714 5718 5722 5726 5730 5734 5737 5740 5743 5746 5749 5753 5756
5699 5695 5690 5685 5680 5675 5670 5664 5658 5652 5646 5640 5634 5627 5620 5616 5610 5604 5597 5593 5589 5584 5579 5575 5571 5568 5564 5561 5558 5555 5552 5550 5549 5547 5544 5542 5541 5540 5538 5537 5536 5535 5535 5535 5535 5536 5538 5539 5541 5543 5545 5547 5549 5553 5556 5560 5565 5569 5574 5578 5583 5587 5592 5597 5602 5606 5610 5614 5618 5623 5627 5632 5637 5641 5645 5650 5654 5658 5661 5664 5667 5670 5674 5678 5682 5685 5689 5693 5698 5702 5706 5711 5715 5719 5724 5728 5731 5734 5738 5741 5744 5747 5750
5693 5688 5683 5678 5672 5666 5661 5654 5648 5642 5636 5629 5623 5616 5609 5604 5599 5593 5587 5581 5577 5573 5568 5564 5560 5557 5553 5550 5547 5543 5541 5538 5537 5535 5533 5531 5530 5529 5527 5526 5525 5524 5523 5523 5523 5524 5525 5526 5528 5530 5532 5534 5537 5540 5543 5547 5551 5556 5560 5565 5569 5574 5579 5584 5589 5594 5597 5601 5606 5611 5616 5621 5626 5630 5635 5640 5644 5648 5652 5655 5659 5662 5666 5669 5673 5677 5681 5685 5690 5694 5699 5703 5708 5713 5717 5721 5725 5728 5732 5735 5738 5741 5744
5686 5681 5675 5670 5664 5657 5651 5645 5638 5631 5624 5619 5612 5605 5598 5593 5588 5582 5576 5571 5566 5562 5557 5554 5550 5546 5543 5540 5537 5533 5530 5527 5525 5524 5522 5520 5519 5518 5516 5515 5514 5513 5512 5512 5512 5512 5513 5514 5515 5517 5519 5522 5524 5527 5530 5534 5538 5543 5547 5551 5556 5561 5566 5571 5576 5581 5584 5589 5593 5599 5604 5609 5614 5619 5624 5629 5634 5639 5643 5647 5650 5654 5657 5661 5665 5669 5673 5678 5682 5686 5691 5696 5700 5705 5710 5714 5718 5722 5726 5729 5733 5736 5739
5679 5673 5667 5661 5655 5648 5641 5635 5628 5621 5614 5608 5601 5595 5588 5582 5577 5572 5565 5560 5556 5551 5547 5544 5540 5537 5534 5530 5527 5524 5520 5517 5515 5513 5511 5509 5508 5507 5506 5504 5504 5503 5502 5502 5502 5501 5501 5502 5504 5505 5507 5509 5512 5515 5518 5521 5525 5530 5534 5539 5543 5548 5553 5558 5563 5567 5571 5575 5581 5586 5592 5597 5602 5608 5613 5619 5624 5628 5633 5637 5641 5645 5649 5652 5656 5661 5665 5669 5674 5679 5683 5688 5693 5698 5703 5707 5712 5716 5719 5723 5727 5730 5733
5671 5665 5659 5653 5646 5639 5632 5625 5618 5611 5604 5597 5591 5585 5578 5572 5567 5562 5556 5551 5546 5542 5538 5534 5531 5527 5524 5521 5518 5514 5510 5508 5504 5502 5499 5498 5497 5496 5494 5493 5493 5492 5491 5491 5491 5491 5491 5491 5493 5494 5495 5497 5500 5503 5506 5509 5513 5517 5522 5526 5530 5535 5540 5545 5549 5554 5558 5563 5568 5574 5579 5585 5590 5596 5602 5607 5612 5617 5622 5627 5631 5636 5640 5644 5648 5653 5657 5661 5666 5671 5675 5680 5685 5690 5695 5700 5704 5709 5713 5717 5720 5724 5727
5664 5657 5650 5644 5637 5630 5623 5615 5608 5600 5594 5588 5582 5575 5569 5563 5558 5553 5548 5543 5538 5534 5529 5525 5522 5518 5515 5512 5508 5504 5501 5498 5494 5491 5489 5487 5485 5484 5482 5482 5481 5481 5480 5480 5481 5481 5480 5480 5482 5483 5484 5485 5488 5491 5494 5497 5501 5505 5510 5514 5518 5522 5527 5532 5536 5540 5544 5549 5556 5562 5567 5573 5579 5584 5590 5595 5600 5606 5611 5616 5622 5627 5631 5636 5640 5644 5649 5653 5658 5663 5668 5673 5678 5682 5687 5692 5697 5702 5706 5710 5714 5717 5721
5655 5649 5642 5634 5627 5620 5613 5606 5599 5591 5584 5578 5572 5566 5560 5554 5549 5544 5539 5535 5530 5526 5521 5517 5513 5509 5505 5502 5498 5494 5491 5487 5484 5480 5478 5475 5473 5472 5470 5470 5469 5469 5468 5469 5469 5469 5469 5470 5472 5473 5473 5474 5477 5480 5482 5485 5489 5494 5498 5502 5506 5510 5514 5519 5522 5526 5531 5537 5543 5549 5555 5561 5566 5572 5577 5583 5589 5594 5600 5606 5612 5617 5623 5627 5631 5635 5640 5645 5650 5655 5660 5664 5669 5674 5679 5684 5689 5694 5699 5703 5707 5711 5715
5647 5640 5634 5626 5618 5610 5603 5596 5590 5583 5576 5569 5563 5558 5552 5547 5541 5537 5532 5527 5523 5518 5514 5509 5505 5500 5496 5492 5489 5484 5480 5477 5474 5470 5467 5464 5462 5460 5459 5458 5457 5456 5456 5457 5458 5458 5458 5460 5461 5462 5462 5464 5466 5469 5471 5474 5478 5482 5486 5491 5495 5499 5502 5506 5509 5514 5519 5525 5531 5537 5543 5549 5554 5560 5565 5571 5577 5582 5589 5595 5601 5607 5613 5618 5623 5627 5631 5636 5642 5647 5651 5656 5661 5666 5671 5676 5681 5686 5691 5696 5701 5705 5709
5639 5631 5624 5618 5610 5602 5594 5587 5581 5574 5568 5561 5555 5549 5544 5539 5534 5529 5524 5519 5515 5510 5505 5501 5496 5491 5487 5483 5479 5474 5470 5466 5463 5460 5456 5453 5450 5448 5447 5446 5444 5443 5444 5444 5445 5445 5447 5449 5450 5450 5451 5453 5455 5458 5460 5463 5467 5471 5475 5479 5484 5487 5490 5494 5498 5502 5507 5513 5519 5525 5531 5537 5542 5548 5553 5559 5565 5571 5577 5584 5590 5596 5602 5608 5613 5618 5623 5628 5633 5638 5643 5648 5653 5658 5663 5668 5673 5679 5684 5689 5694 5699 5703
5631 5623 5615 5608 5601 5594 5587 5579 5573 5566 5560 5554 5548 5542 5537 5532 5527 5522 5517 5512 5507 5502 5497 5492 5488 5483 5478 5473 5468 5464 5459 5456 5452 5449 5445 5443 5440 5438 5436 5434 5433 5431 5432 5432 5432 5432 5435 5437 5438 5439 5441 5443 5444 5446 5449 5452 5456 5460 5464 5468 5472 5476 5479 5482 5486 5491 5496 5501 5507 5514 5520 5525 5530 5535 5541 5547 5553 5559 5566 5573 5579 5585 5591 5598 5604 5609 5614 5619 5624 5629 5634 5639 5644 5649 5654 5660 5665 5671 5677 5682 5687 5692 5697
5623 5616 5607 5600 5593 5585 5579 5572 5565 5559 5553 5547 5541 5535 5530 5525 5519 5515 5510 5505 5499 5494 5489 5484 5479 5474 5469 5464 5459 5454 5449 5445 5441 5438 5434 5432 5429 5428 5425 5423 5422 5421 5420 5419 5419 5420 5423 5424 5426 5427 5429 5431 5433 5435 5438 5441 5445 5450 5453 5457 5461 5465 5468 5472 5476 5480 5485 5490 5496 5503 5509 5514 5518 5523 5529 5535 5542 5548 5555 5561 5568 5574 5581 5588 5594 5600 5606 5611 5616 5621 5626 5631 5636 5641 5647 5652 5658 5664 5669 5675 5680 5685 5690
5615 5608 5600 5592 5585 5578 5571 5564 5558 5552 5546 5540 5534 5529 5524 5518 5513 5508 5503 5498 5492 5486 5481 5475 5470 5465 5460 5455 5449 5444 5439 5434 5431 5427 5424 5422 5420 5418 5416 5414 5412 5411 5410 5409 5408 5409 5411 5412 5413 5415 5418 5420 5422 5424 5427 5431 5435 5439 5442 5445 5450 5454 5458 5462 5465 5470 5474 5480 5486 5492 5498 5502 5506 5511 5517 5524 5530 5537 5544 5550 5557 5563 5570 5577 5584 5590 5596 5602 5607 5612 5617 5622 5628 5633 5639 5644 5650 5656 5661 5667 5672 5677 5683
5607 5600 5593 5585 5578 5571 5564 5557 5551 5545 5539 5534 5528 5523 5517 5512 5506 5501 5496 5491 5485 5479 5474 5468 5462 5456 5450 5445 5440 5435 5430 5426 5422 5418 5415 5413 5411 5409 5407 5405 5404 5402 5401 5399 5399 5399 5400 5400 5402 5404 5406 5408 5409 5412 5415 5420 5424 5428 5431 5434 5439 5444 5448 5451 5455 5460 5464 5470 5476 5481 5486 5490 5494 5500 5506 5513 5520 5527 5533 5539 5546 5553 5559 5566 5573 5580 5587 5593 5599 5604 5609 5614 5619 5625 5631 5636 5642 5647 5653 5658 5664 5669 5675
5600 5592 5585 5578 5570 5564 5558 5551 5545 5539 5534 5528 5522 5517 5511 5505 5500 5494 5489 5484 5478 5473 5467 5460 5454 5448 5442 5436 5432 5427 5422 5418 5414 5411 5407 5405 5403 5401 5399 5397 5396 5394 5392 5391 5390 5390 5389 5390 5392 5393 5394 5395 5397 5400 5405 5409 5413 5416 5420 5424 5428 5433 5437 5441 5445 5450 5455 5460 5465 5470 5474 5479 5484 5489 5496 5502 5509 5516 5522 5529 5535 5542 5549 5556 5563 5570 5577 5584 5590 5595 5600 5605 5611 5616 5621 5627 5632 5638 5644 5650 5655 5661 5667
5593 5586 5578 5571 5564 5557 5551 5545 5539 5533 5528 5522 5516 5511 5505 5499 5494 5488 5482 5477 5472 5466 5460 5454 5447 5440 5434 5428 5423 5419 5414 5410 5407 5404 5401 5398 5396 5394 5391 5389 5387 5386 5384 5383 5382 5381 5380 5381 5382 5382 5383 5384 5386 5389 5394 5398 5401 5405 5409 5413 5417 5421 5426 5430 5435 5440 5445 5450 5454 5459 5463 5468 5473 5479 5485 5492 5499 5505 5511 5518 5524 5531 5538 5546 5553 5560 5567 5574 5580 5586 5591 5596 5601 5606 5612 5617 5623 5629 5635 5642 5648 5654 5659
5587 5579 5572 5565 5558 5551 5544 5539 5533 5527 5522 5516 5510 5505 5499 5493 5487 5482 5476 5470 5465 5459 5453 5447 5440 5433 5427 5421 5416 5411 5408 5404 5400 5397 5394 5391 5389 5386 5384 5381 5379 5377 5375 5374 5373 5372 5371 5371 5372 5372 5372 5373 5375 5379 5383 5386 5390 5394 5399 5402 5406 5410 5415 5420 5425 5430 5435 5439 5444 5448 5453 5458 5464 5469 5476 5483 5489 5494 5500 5507 5514 5521 5529 5537 5544 5551 5557 5564 5569 5575 5581 5586 5591 5597 5603 5609 5615 5621 5628 5634 5640 5646 5652
5579 5572 5565 5559 5552 5545 5539 5533 5527 5522 5516 5511 5505 5499 5493 5487 5481 5475 5470 5464 5459 5453 5446 5440 5434 5427 5420 5414 5409 5405 5401 5397 5394 5391 5388 5385 5382 5378 5375 5373 5370 5368 5366 5364 5364 5363 5362 5362 5361 5361 5361 5362 5365 5369 5372 5376 5380 5384 5387 5390 5395 5399 5404 5410 5414 5419 5424 5429 5433 5438 5443 5448 5454 5461 5468 5473 5479 5484 5490 5497 5505 5513 5520 5528 5534 5540 5546 5552 5558 5564 5570 5577 5582 5588 5594 5601 5607 5613 5619 5626 5632 5638 5644
5573 5566 5559 5552 5546 5539 5533 5527 5522 5516 5511 5505 5499 5494 5488 5482 5476 5470 5464 5458 5452 5446 5440 5433 5427 5421 5415 5409 5403 5399 5394 5390 5387 5384 5381 5378 5374 5371 5368 5364 5361 5359 5356 5355 5353 5352 5352 5351 5350 5350 5350 5352 5355 5359 5362 5366 5369 5372 5375 5379 5384 5389 5394 5399 5404 5408 5413 5418 5423 5428 5434 5440 5446 5453 5459 5464 5469 5474 5481 5489 5497 5504 5511 5518 5524 5529 5535 5540 5547 5554 5561 5568 5574 5580 5586 5593 5599 5605 5612 5618 5624 5631 5637
5568 5560 5553 5546 5540 5534 5528 5522 5517 5511 5506 5500 5494 5488 5482 5476 5470 5464 5458 5452 5446 5439 5434 5427 5421 5415 5410 5404 5398 5393 5388 5384 5381 5377 5374 5371 5367 5364 5360 5356 5353 5350 5347 5345 5343 5342 5342 5341 5340 5339 5340 5342 5345 5349 5352 5356 5359 5361 5364 5370 5375 5379 5384 5388 5393 5398 5403 5408 5414 5419 5425 5432 5439 5445 5451 5455 5461 5467 5474 5481 5488 5494 5500 5506 5512 5517 5524 5530 5537 5544 5552 5559 5566 5573 5579 5584 5591 5597 5604 5610 5616 5623 5629
5561 5554 5548 5541 5535 5529 5523 5517 5512 5506 5500 5494 5489 5483 5476 5470 5464 5458 5452 5446 5439 5433 5427 5421 5415 5410 5405 5400 5394 5389 5384 5379 5375 5371 5368 5365 5361 5357 5353 5349 5345 5342 5339 5335 5334 5332 5331 5330 5329 5329 5330 5332 5335 5339 5342 5345 5348 5351 5356 5360 5364 5369 5374 5379 5384 5389 5394 5399 5405 5411 5418 5425 5432 5438 5443 5448 5454 5459 5466 5472 5478 5484 5489 5494 5500 5507 5513 5520 5528 5535 5543 5551 5558 5564 5571 5577 5583 5589 5595 5601 5608 5614 5620
5555 5549 5542 5536 5530 5524 5518 5512 5507 5501 5495 5489 5483 5477 5471 5465 5459 5452 5446 5440 5433 5427 5421 5415 5409 5404 5399 5395 5390 5385 5379 5374 5369 5365 5362 5358 5354 5351 5347 5343 5339 5335 5332 5328 5325 5323 5322 5320 5320 5319 5320 5323 5326 5329 5332 5335 5339 5343 5347 5351 5354 5359 5365 5369 5374 5379 5385 5390 5397 5404 5411 5418 5424 5430 5436 5441 5447 5452 5457 5463 5468 5474 5479 5485 5491 5497 5504 5511 5519 5527 5534 5542 5549 5556 5562 5568 5574 5579 5586 5592 5599 5605 5612
5549 5543 5536 5531 5525 5519 5513 5507 5502 5496 5490 5484 5479 5472 5466 5459 5454 5447 5440 5434 5427 5421 5415 5409 5404 5399 5394 5390 5385 5380 5375 5369 5364 5360 5356 5352 5347 5344 5341 5338 5334 5329 5326 5322 5318 5315 5313 5312 5311 5311 5312 5314 5317 5320 5324 5327 5332 5336 5339 5342 5346 5351 5356 5360 5365 5371 5376 5383 5390 5397 5404 5411 5418 5424 5429 5434 5439 5444 5449 5454 5459 5464 5470 5476 5482 5489 5495 5503 5511 5518 5526 5533 5540 5546 5552 5558 5564 5570 5576 5583 5589 5596 5604
5544 5538 5531 5526 5520 5514 5509 5503 5497 5491 5485 5480 5474 5468 5462 5455 5449 5442 5436 5429 5422 5416 5410 5404 5400 5395 5390 5384 5380 5375 5370 5364 5359 5355 5350 5346 5341 5336 5332 5329 5327 5324 5320 5317 5313 5309 5306 5304 5303 5303 5304 5307 5309 5313 5317 5321 5326 5329 5332 5335 5340 5344 5349 5354 5359 5364 5370 5377 5384 5391 5398 5405 5411 5417 5422 5426 5431 5436 5441 5446 5451 5457 5462 5468 5474 5480 5487 5494 5502 5509 5516 5523 5529 5536 5542 5548 5554 5561 5567 5574 5581 5589 5596
5539 5533 5527 5521 5515 5509 5504 5498 5492 5486 5480 5475 5469 5464 5458 5451 5444 5438 5431 5424 5417 5410 5405 5399 5395 5390 5386 5381 5375 5370 5365 5359 5354 5349 5344 5339 5336 5331 5326 5321 5318 5316 5315 5313 5309 5305 5300 5297 5296 5297 5299 5300 5304 5307 5311 5314 5318 5322 5325 5329 5334 5338 5343 5348 5354 5359 5365 5373 5379 5386 5392 5399 5405 5409 5414 5419 5424 5429 5434 5439 5444 5449 5454 5460 5466 5472 5479 5485 5493 5499 5506 5512 5519 5525 5532 5539 5546 5552 5559 5566 5573 5581 5589
5534 5528 5522 5516 5510 5505 5499 5493 5487 5481 5475 5470 5464 5459 5453 5447 5440 5434 5426 5419 5413 5406 5400 5394 5390 5385 5382 5377 5372 5367 5361 5355 5350 5345 5341 5335 5330 5326 5322 5317 5312 5309 5307 5306 5305 5302 5297 5292 5290 5291 5294 5295 5298 5301 5304 5307 5311 5315 5319 5323 5328 5332 5337 5343 5349 5354 5361 5368 5374 5381 5387 5393 5398 5402 5407 5412 5418 5423 5428 5433 5437 5442 5447 5453 5458 5464 5470 5477 5483 5490 5496 5502 5509 5515 5523 5530 5537 5544 5551 5558 5565 5573 5581
5529 5523 5517 5511 5506 5500 5494 5488 5482 5476 5470 5465 5459 5454 5449 5443 5436 5429 5422 5415 5408 5402 5396 5390 5385 5380 5376 5373 5369 5364 5358 5353 5347 5342 5337 5332 5326 5321 5317 5313 5309 5304 5301 5299 5298 5297 5294 5290 5287 5287 5289 5291 5293 5295 5298 5301 5304 5308 5312 5317 5322 5327 5332 5338 5343 5350 5357 5364 5369 5375 5381 5386 5391 5396 5401 5406 5412 5417 5421 5426 5431 5435 5440 5445 5450 5456 5462 5469 5475 5481 5487 5493 5499 5506 5514 5521 5528 5535 5542 5549 5557 5565 5573
5525 5519 5513 5507 5501 5495 5489 5484 5477 5471 5466 5460 5455 5449 5444 5438 5431 5424 5417 5410 5403 5397 5391 5386 5381 5376 5372 5368 5364 5360 5355 5350 5345 5340 5335 5329 5324 5318 5313 5309 5306 5303 5299 5296 5293 5291 5290 5288 5286 5284 5284 5286 5289 5291 5293 5296 5299 5302 5307 5312 5317 5321 5327 5333 5338 5344 5351 5357 5363 5369 5375 5380 5385 5390 5395 5400 5405 5410 5415 5419 5424 5428 5433 5438 5444 5449 5455 5461 5467 5472 5478 5484 5490 5497 5504 5512 5519 5526 5534 5541 5549 5556 5564
5521 5515 5509 5503 5497 5491 5485 5479 5473 5467 5461 5456 5450 5445 5439 5433 5427 5420 5414 5406 5399 5393 5387 5382 5377 5372 5367 5363 5359 5356 5352 5348 5343 5338 5333 5327 5323 5318 5312 5307 5303 5300 5297 5295 5292 5289 5286 5285 5284 5282 5281 5283 5285 5287 5289 5292 5294 5298 5303 5307 5312 5317 5322 5328 5333 5339 5345 5350 5356 5363 5369 5374 5379 5384 5389 5394 5399 5403 5408 5413 5417 5422 5427 5432 5437 5443 5448 5454 5459 5464 5469 5475 5481 5488 5495 5502 5510 5517 5525 5533 5541 5549 5556
5517 5511 5505 5499 5493 5487 5481 5475 5469 5463 5457 5452 5446 5440 5435 5429 5423 5416 5410 5403 5396 5389 5383 5378 5373 5369 5364 5359 5355 5352 5349 5345 5341 5336 5331 5326 5321 5317 5313 5307 5302 5297 5293 5291 5289 5288 5285 5283 5282 5281 5279 5281 5283 5285 5286 5288 5291 5294 5299 5303 5308 5313 5318 5323 5329 5334 5340 5346 5353 5359 5364 5369 5373 5378 5383 5388 5392 5397 5402 5407 5411 5416 5421 5426 5431 5436 5442 5447 5452 5456 5461 5466 5472 5479 5486 5493 5501 5510 5518 5526 5534 5541 5549
5514 5508 5501 5495 5489 5483 5477 5471 5465 5459 5454 5448 5442 5437 5431 5425 5419 5412 5406 5399 5392 5386 5380 5375 5370 5366 5361 5357 5353 5349 5345 5342 5339 5334 5330 5326 5321 5317 5313 5309 5304 5299 5295 5291 5288 5286 5284 5283 5282 5280 5278 5279 5281 5283 5284 5286 5289 5292 5296 5300 5304 5309 5314 5320 5326 5332 5338 5344 5350 5355 5358 5362 5367 5373 5377 5382 5387 5392 5396 5401 5406 5411 5416 5421 5426 5431 5435 5440 5444 5449 5454 5459 5464 5470 5477 5485 5494 5503 5511 5519 5526 5533 5540
5510 5504 5498 5492 5486 5480 5474 5468 5462 5456 5450 5444 5439 5433 5427 5421 5415 5409 5402 5396 5389 5383 5377 5372 5367 5363 5359 5354 5350 5347 5343 5339 5336 5333 5329 5326 5322 5317 5313 5309 5304 5300 5296 5292 5289 5285 5284 5282 5281 5280 5279 5279 5279 5281 5283 5285 5288 5291 5294 5298 5302 5306 5312 5318 5324 5329 5335 5340 5345 5349 5353 5358 5363 5368 5373 5378 5383 5387 5392 5396 5401 5406 5411 5416 5421 5425 5429 5434 5438 5442 5446 5451 5457 5463 5469 5478 5486 5495 5504 5511 5518 5524 5531
5506 5501 5495 5489 5483 5477 5471 5465 5459 5453 5447 5441 5435 5429 5424 5417 5411 5405 5399 5393 5387 5380 5374 5369 5364 5360 5356 5352 5348 5344 5341 5337 5334 5331 5328 5325 5321 5317 5313 5309 5305 5301 5297 5293 5289 5287 5284 5283 5282 5281 5280 5279 5279 5280 5282 5284 5286 5289 5292 5295 5299 5304 5309 5314 5320 5325 5330 5335 5340 5344 5349 5354 5359 5364 5369 5374 5379 5383 5388 5393 5397 5402 5407 5411 5415 5419 5423 5427 5431 5435 5439 5444 5449 5456 5463 5471 5479 5488 5495 5502 5509 5515 5522
5504 5498 5492 5486 5480 5474 5469 5462 5456 5450 5444 5438 5432 5426 5420 5414 5408 5402 5396 5390 5384 5378 5373 5367 5363 5358 5354 5350 5347 5343 5339 5336 5333 5329 5327 5324 5320 5317 5313 5309 5306 5302 5299 5295 5291 5289 5286 5285 5284 5283 5282 5281 5280 5280 5282 5283 5285 5288 5290 5294 5298 5302 5307 5312 5317 5322 5327 5332 5337 5341 5346 5351 5356 5361 5366 5371 5375 5380 5384 5389 5393 5397 5402 5405 5409 5412 5416 5420 5424 5428 5432 5437 5443 5450 5457 5465 5472 5479 5486 5493 5499 5505 5512
5501 5495 5489 5484 5478 5471 5465 5459 5453 5447 5441 5435 5429 5424 5418 5412 5405 5399 5393 5387 5381 5376 5370 5365 5361 5356 5353 5349 5345 5341 5338 5334 5331 5329 5326 5323 5319 5316 5313 5310 5307 5303 5300 5297 5294 5291 5289 5287 5286 5285 5284 5283 5283 5282 5282 5283 5285 5287 5290 5293 5297 5301 5305 5309 5314 5319 5324 5329 5334 5339 5343 5348 5353 5358 5363 5367 5372 5376 5380 5384 5388 5391 5395 5398 5402 5405 5409 5413 5417 5422 5426 5431 5437 5444 5451 5458 5464 5470 5476 5482 5489 5496 5504